Flag for Canada Weather past 2 weeks in Labrador City, Newfoundland and Labrador, Canada

Now
41 °F

Light rain. Low clouds.


Feels Like: 35 °F
Forecast: 40 / 46 °F
Wind: 9 mph from Northeast

Location: Wabush Lake

Current Time: Sep 21, 2014 at 11:41:52 AM

Latest Report: Sep 21, 2014 at 11:00 AM


Visibility: 10 mi

Pressure: 29.67 "Hg

Humidity: 100%

Dew point: 41 °F

Location of Labrador CityLocation

Historic Weather in Labrador City — Graph

°F

Labrador City temperature yesterday

Maximum temperature yesterday: 46 °F (at 11:00 PM)
Minimum temperature yesterday: 34 °F (at 4:03 AM)
Average temperature yesterday: 39 °F

Past Weeks' High & Low Weather Summary

 TemperatureHumidityPressure
High68 °F (Sep 9, 3:00 PM)100% (Sep 7, 7:00 AM)30.33 "Hg (Sep 7, 7:00 AM)
Low25 °F (Sep 18, 2:00 AM)36% (Sep 17, 5:00 PM)29.21 "Hg (Sep 12, 3:00 AM)
Average42 °F80%29.92 "Hg
* Reported Sep 6 10:00 AM — Sep 21 10:00 AM, Labrador City, Weather by CustomWeather, © 2014

Note: Actual official high and low records may vary slightly from our data, if they occured in-between our weather recording intervals... More about our weather records

Advertising

Labrador City weather history for previous 24 hours

 ConditionsComfort  
Time TempWeatherWind HumidityBarometerVisibility
10:00 AM
Sep 21
43 °FLight rain. More clouds than sun.7 mph93%29.68 "Hg10 mi
9:00 AM43 °FRain. Mostly cloudy.7 mph93%29.67 "Hg10 mi
8:00 AM43 °FMostly cloudy.2 mph93%29.66 "Hg12 mi
7:00 AM43 °FLight rain. Low clouds.5 mph93%29.67 "Hg10 mi
6:00 AM45 °FLight rain. Low clouds.5 mph93%29.67 "Hg6 mi
5:03 AM46 °FFog.No wind93%29.66 "Hg5 mi
5:00 AM46 °FMostly cloudy.2 mph93%29.66 "Hg9 mi
4:00 AM45 °FOvercast.5 mph100%29.67 "Hg9 mi
3:00 AM45 °FMostly cloudy.5 mph100%29.65 "Hg9 mi
2:51 AM45 °FMostly cloudy.6 mph100%29.66 "Hg9 mi
2:00 AM45 °FLow clouds.5 mph100%29.66 "Hg9 mi
1:00 AM45 °FLight rain. Fog.6 mph100%29.66 "Hg2 mi
12:55 AM45 °FLight rain. Fog.6 mph100%29.66 "Hg2 mi
12:00 AM45 °FOvercast.7 mph93%29.66 "Hg9 mi
11:00 PM
Sep 20
46 °FOvercast.6 mph87%29.67 "Hg9 mi
10:00 PM45 °FOvercast.7 mph93%29.65 "Hg15 mi
9:00 PM45 °FOvercast.9 mph93%29.64 "Hg15 mi
8:00 PM45 °FSprinkles. Overcast.13 mph87%29.64 "Hg12 mi
7:00 PM45 °FOvercast.12 mph87%29.62 "Hg15 mi
6:00 PM43 °FSprinkles. Overcast.12 mph93%29.60 "Hg12 mi
5:00 PM43 °FSprinkles. Overcast.14 mph87%29.59 "Hg12 mi
4:00 PM41 °FSprinkles. Overcast.14 mph93%29.59 "Hg15 mi
3:00 PM41 °FSprinkles. Overcast.14 mph93%29.58 "Hg12 mi
2:00 PM39 °FSprinkles. Overcast.18 mph93%29.59 "Hg10 mi
Weather by CustomWeather, © 2014

See weather overviewHow to use our weather pages